Location: Andrest
(43.3200°N, 0.0641°E)
Time: 01:40:28
(UTC+00:00)

COSMO-SKYMED 1 - Pass Details

Date: 15 April 2021
Orbit: 621 x 623 km, 97.9° (Epoch: 18 May)

Event Time Altitude Azimuth Distance (km) Brightness Sun altitude
Rises 19:27:31 0° 355° (N) 2,913 6.4 -8.5°
Reaches altitude 10° 19:30:31 10° 332° (NNW) 2,001 6.0 -9.0°
Maximum altitude 19:32:58 15° 297° (WNW) 1,689 6.2 -9.4°
Drops below altitude 10° 19:35:25 10° 263° (W) 1,992 6.2 -9.8°
Sets 19:38:25 0° 240° (WSW) 2,893 6.5 -10.3°
